User: anonymous   Login
Location: Tamazert
(32.6352°N, 5.2072°W)
Time: 07:54:56
(UTC+00:00)
Language:

Vanguard 2 - Orbit

View from above orbital plane
View from above orbital plane
View from above satellite
View from above satellite

Ground track
Ground track

The orbit data is extracted from the following two-line orbital elements,

1 00011U 59001A   24063.70861728  .00002689  00000-0  14362-2 0  9994
2 00011  32.8724   1.8468 1456690 350.3027   7.2074 11.87752960435961
Epoch (UTC): 03 March 2024 17:00:24
Eccentricity: 0.1456690
inclination: 32.8724°
perigee height: 554 km
apogee height: 2918 km
right ascension of ascending node: 1.8468°
argument of perigee: 350.3027°
revolutions per day: 11.87752960
mean anomaly at epoch: 7.2074°
orbit number at epoch: 43596

The dashed part of the orbit path shows where the satellite is in the earth's shadow,  

DLR